Starlink 30333

operational
NORAD ID: 57702 Int'l Des: 2023-129 Owner: SPXS Country: US Constellation: starlink
LEOCIRCULAR

About Starlink 30333

Description loading...

Live Position

Loading 3D Globe...

Upcoming Passes

Altitude History

Altitude vs Time

uPlot chart will show altitude changes over time

Two-Line Element Set

1 57702U 23129E 26037.06527959 .00001827 00000-0 15024-3 0 9992
2 57702 43.0036 292.4493 0001132 269.7314 90.3399 15.02544236135892
Epoch: Feb 6, 2026 • Age: 10 hours

Current Status

Altitude 562.4 km
Velocity 7.59 km/s
Sub-Earth Point 40.78°N, 48.58°E
Launch Date Aug 27, 2023
Age 2.4 years
Type internet

Technical Details

Classification Payload
Mass 730.00 kg
Dry Mass 700.00 kg
Total Mass 730.00 kg
Length 0.30 m
Diameter 4.10 m
Span 29.00 m
Shape Box + pan
Manufacturer SPXS
Bus Type Starlink V2M
Phase Status In Orbit
Owner/State SPXS/US

Large Constellations

Loading constellations...